This demonstration page uses our WeatherBlox Daily Observations layout. Learn more.

Left ArrowRight Arrow

38.20091, -84.87328

Hourly Observations for January 30, 2015

Temp ( °F °C ) Dew Point ( °F °C ) Humidity (%) Winds ( mph kmh ) Pressure ( in mb ) Visibility ( mi km ) Precip ( " mm )
12:15 am 00:15 Cloudy 34 1.1 29 -1.7 82 82 WNW 6 9 30.30 1026 9 14 0.00 0.00
12:45 am 00:45 Cloudy 33 0.6 29 -1.7 85 85 WNW 7 11 30.30 1026 10 16 0.00 0.00
12:53 am 00:53 Cloudy 33 0.6 29 -1.7 85 85 W 6 9 30.24 1024 10 16 0.00 0.00
1:14 am 01:14 Cloudy 34 1.1 29 -1.7 82 82 W 7 11 30.30 1026 10 16 0.00 0.00
1:53 am 01:53 Cloudy 34 1.1 28 -2.2 79 79 W 6 9 30.25 1024 10 16 0.00 0.00
2:14 am 02:14 Cloudy 34 1.1 27 -2.8 76 76 WNW 8 13 30.30 1026 10 16 0.00 0.00
2:28 am 02:28 Cloudy 34 1.1 27 -2.8 76 76 WNW 6 9 30.30 1026 10 16 0.00 0.00
2:53 am 02:53 Cloudy 33 0.6 28 -2.2 82 82 W 8 13 30.26 1025 10 16 0.00 0.00
3:10 am 03:10 Cloudy 33 0.6 28 -2.2 82 82 WNW 7 11 30.33 1027 10 16 0.00 0.00
3:53 am 03:53 Cloudy 34 1.1 26 -3.3 73 73 VRB 6 9 30.28 1025 10 16 0.00 0.00
4:20 am 04:20 Cloudy 34 1.1 26 -3.3 73 73 WNW 6 9 30.33 1027 10 16 0.00 0.00
4:53 am 04:53 Cloudy 33 0.6 27 -2.8 78 78 WNW 6 9 30.30 1026 10 16 0.00 0.03
5:53 am 05:53 Cloudy 34 1.1 23 -5 64 64 WNW 7 11 30.31 1026 10 16 0.00 0.00
6:53 am 06:53 Cloudy 33 0.6 21 -6.1 61 61 WNW 7 11 30.34 1027 10 16 0.00 0.00
7:53 am 07:53 Cloudy 33 0.6 22 -5.6 64 64 NW 5 7 30.36 1028 10 16 0.00 0.00
8:53 am 08:53 Cloudy with Light Snow 33 0.6 23 -5 66 66 NW 12 19 30.39 1029 6 10 0.00 0.03
9:03 am 09:03 Cloudy with Light Snow 32 0 23 -5 69 69 NNW 14 22 30.42 1030 5 8 0.00 0.03
9:19 am 09:19 Cloudy 32 0 23 -5 69 69 NNW 14 22 30.45 1031 10 16 0.00 0.03
9:53 am 09:53 Cloudy 33 0.6 22 -5.6 64 64 NNW 13 20 30.42 1030 10 16 0.00 0.03
10:29 am 10:29 Cloudy 32 0 20 -6.7 61 61 N 14 22 30.45 1031 10 16 0.00 0.00
10:36 am 10:36 Cloudy 32 0 19 -7.2 59 59 NNW 12 19 30.45 1031 10 16 0.00 0.00
10:53 am 10:53 Mostly Cloudy 33 0.6 18 -7.8 54 54 NW 15 24 30.45 1031 10 16 0.00 0.00
11:53 am 11:53 Mostly Sunny 33 0.6 15 -9.4 47 47 NNW 14 22 30.47 1032 10 16 0.00 0.00
12:53 pm 12:53 Mostly Cloudy 34 1.1 15 -9.4 46 46 N 12 19 30.46 1032 10 16 0.00 0.00
1:53 pm 13:53 Mostly Sunny 35 1.7 15 -9.4 44 44 NNW 8 13 30.44 1031 10 16 0.00 0.00
2:53 pm 14:53 Sunny 36 2.2 14 -10 40 40 NNW 10 17 30.42 1030 10 16 0.00 0.00
3:53 pm 15:53 Sunny 36 2.2 12 -11.1 37 37 Calm 30.43 1030 10 16 0.00 0.00
4:53 pm 16:53 Sunny 36 2.2 13 -10.6 39 39 NNW 9 15 30.43 1031 10 16 0.00 0.00
5:53 pm 17:53 Sunny 32 0 13 -10.6 45 45 N 9 15 30.45 1031 10 16 0.00 0.00
6:53 pm 18:53 Clear 29 -1.7 13 -10.6 51 51 Calm 30.46 1032 10 16 0.00 0.00
7:53 pm 19:53 Clear 27 -2.8 14 -10 58 58 N 3 6 30.47 1032 10 16 0.00 0.00
8:53 pm 20:53 Clear 24 -4.4 14 -10 65 65 NE 3 6 30.46 1032 10 16 0.00 0.00
9:53 pm 21:53 Clear 23 -5 14 -10 68 68 Calm 30.46 1032 10 16 0.00 0.00
10:53 pm 22:53 Clear 21 -6.1 14 -10 74 74 Calm 30.46 1031 10 16 0.00 0.00
11:53 pm 23:53 Clear 20 -6.7 14 -10 78 78 Calm 30.45 1031 10 16 0.00 0.00

Powered by AerisWeather